Total_Precipitation_Accumulation
0.01 0.01 0.01 0.00 0.00 0.00 0.00 0.00 0.00 0.00 0.00 0.02 0.03 0.01 0.02 0.07 0.16 0.19 0.16 0.17 0.24 0.30 0.29 0.25 0.20 0.16 0.08 0.05 0.04 0.02 0.02 0.04 0.05 0.02 0.05 0.06 0.06 0.06 0.08 0.07 0.05 0.06 0.05
0.02 0.02 0.01 0.00 0.00 0.00 0.00 0.00 0.00 0.00 0.00 0.00 0.01 0.01 0.01 0.03 0.07 0.11 0.13 0.16 0.12 0.15 0.17 0.14 0.15 0.15 0.12 0.05 0.07 0.04 0.03 0.04 0.05 0.02 0.03 0.07 0.05 0.03 0.04 0.06 0.08 0.05 0.00
0.02 0.01 0.01 0.01 0.01 0.00 0.00 0.00 0.00 0.00 0.00 0.00 0.01 0.01 0.01 0.05 0.05 0.07 0.09 0.10 0.17 0.17 0.17 0.13 0.09 0.10 0.11 0.07 0.04 0.04 0.04 0.06 0.08 0.08 0.05 0.06 0.07 0.11 0.14 0.11 0.07 0.04 0.02
0.05 0.05 0.06 0.07 0.05 0.02 0.00 0.00 0.00 0.00 0.00 0.00 0.00 0.01 0.00 0.00 0.01 0.02 0.03 0.04 0.06 0.10 0.11 0.09 0.08 0.07 0.06 0.10 0.10 0.09 0.09 0.10 0.09 0.08 0.03 0.02 0.04 0.06 0.10 0.13 0.13 0.11 0.11
0.18 0.14 0.12 0.09 0.04 0.02 0.00 0.00 0.00 0.00 0.00 0.00 0.00 0.00 0.00 0.00 0.00 0.01 0.01 0.00 0.00 0.01 0.02 0.03 0.02 0.03 0.04 0.04 0.05 0.05 0.07 0.10 0.10 0.10 0.07 0.04 0.03 0.03 0.03 0.07 0.20 0.26 0.32
0.30 0.29 0.20 0.13 0.07 0.02 0.00 0.00 0.00 0.00 0.00 0.00 0.00 0.00 0.00 0.00 0.01 0.01 0.01 0.01 0.00 0.00 0.00 0.00 0.01 0.04 0.01 0.02 0.04 0.05 0.07 0.08 0.07 0.08 0.09 0.10 0.08 0.10 0.12 0.17 0.28 0.41 0.47
0.44 0.40 0.29 0.18 0.07 0.02 0.00 0.00 0.00 0.00 0.00 0.00 0.00 0.00 0.00 0.00 0.00 0.00 0.00 0.01 0.01 0.01 0.00 0.00 0.01 0.01 0.02 0.00 0.02 0.03 0.03 0.06 0.07 0.09 0.13 0.12 0.12 0.12 0.13 0.17 0.22 0.31 0.37
0.40 0.35 0.24 0.11 0.02 0.01 0.01 0.01 0.00 0.00 0.00 0.00 0.00 0.00 0.00 0.00 0.01 0.00 0.00 0.00 0.01 0.01 0.00 0.00 0.00 0.00 0.01 0.02 0.01 0.01 0.02 0.02 0.03 0.03 0.02 0.03 0.05 0.07 0.09 0.14 0.20 0.27 0.30
0.33 0.34 0.28 0.15 0.05 0.01 0.01 0.01 0.01 0.00 0.00 0.00 0.00 0.00 0.00 0.00 0.02 0.01 0.00 0.00 0.01 0.01 0.01 0.02 0.02 0.02 0.02 0.03 0.01 0.02 0.05 0.07 0.11 0.10 0.10 0.14 0.19 0.21 0.19 0.13 0.13 0.15 0.21
0.43 0.36 0.25 0.21 0.14 0.06 0.03 0.04 0.03 0.03 0.02 0.01 0.01 0.01 0.03 0.01 0.03 0.02 0.02 0.00 0.00 0.02 0.04 0.04 0.07 0.05 0.07 0.07 0.03 0.01 0.02 0.06 0.09 0.12 0.15 0.15 0.15 0.19 0.24 0.19 0.21 0.29 0.38
0.47 0.32 0.38 0.25 0.17 0.10 0.08 0.10 0.09 0.09 0.08 0.07 0.09 0.07 0.07 0.09 0.08 0.09 0.06 0.04 0.02 0.04 0.11 0.14 0.19 0.39 0.30 0.34 0.30 0.22 0.43 0.44 0.49 0.33 0.30 0.32 0.34 0.35 0.37 0.36 0.32 0.32 0.34
0.60 0.47 0.26 0.33 0.22 0.13 0.09 0.09 0.10 0.13 0.16 0.15 0.15 0.17 0.19 0.17 0.28 0.22 0.32 0.59 0.78 0.73 0.81 0.72 0.69 0.68 0.74 0.86 0.85 0.92 0.90 0.73 0.62 0.63 0.65 0.68 0.66 0.62 0.53 0.41 0.33 0.26 0.21
0.34 0.33 0.28 0.20 0.12 0.09 0.09 0.07 0.06 0.10 0.16 0.15 0.14 0.14 0.18 0.30 0.46 0.58 0.53 0.65 0.79 0.81 0.92 1.00 1.04 0.92 0.83 0.86 0.93 0.98 1.00 0.97 1.01 1.02 1.00 0.92 0.73 0.53 0.38 0.28 0.19 0.13 0.08
0.04 0.06 0.05 0.07 0.05 0.02 0.02 0.03 0.03 0.07 0.12 0.15 0.17 0.18 0.18 0.24 0.31 0.52 0.68 0.71 0.77 0.83 1.01 1.09 1.08 1.03 0.99 1.03 1.10 1.11 1.06 0.99 0.87 0.72 0.57 0.42 0.31 0.23 0.17 0.13 0.10 0.07 0.04
0.00 0.00 0.00 0.00 0.00 0.00 0.01 0.03 0.02 0.06 0.09 0.09 0.12 0.19 0.28 0.32 0.35 0.30 0.29 0.30 0.32 0.35 0.39 0.47 0.53 0.55 0.55 0.54 0.52 0.47 0.38 0.30 0.22 0.18 0.14 0.10 0.08 0.05 0.04 0.02 0.01 0.00 0.00
0.00 0.00 0.00 0.00 0.00 0.01 0.01 0.05 0.08 0.06 0.06 0.07 0.08 0.07 0.17 0.21 0.26 0.28 0.29 0.32 0.35 0.36 0.32 0.30 0.29 0.28 0.26 0.23 0.18 0.14 0.11 0.08 0.06 0.05 0.03 0.02 0.01 0.01 0.00 0.00 0.00 0.00 0.00
0.01 0.01 0.01 0.01 0.00 0.01 0.01 0.01 0.06 0.05 0.04 0.05 0.05 0.06 0.07 0.11 0.14 0.17 0.21 0.24 0.27 0.27 0.24 0.23 0.21 0.18 0.14 0.09 0.06 0.04 0.03 0.02 0.01 0.00 0.00 0.00 0.00 0.00 0.00 0.00 0.00 0.00 0.00
0.01 0.01 0.01 0.01 0.01 0.01 0.01 0.01 0.01 0.01 0.02 0.06 0.08 0.06 0.05 0.05 0.06 0.07 0.07 0.06 0.07 0.07 0.07 0.06 0.05 0.03 0.02 0.01 0.01 0.00 0.00 0.00 0.00 0.00 0.00 0.00 0.00 0.00 0.00 0.00 0.00 0.00 0.00
0.01 0.01 0.01 0.01 0.01 0.01 0.01 0.01 0.01 0.01 0.01 0.04 0.04 0.04 0.06 0.03 0.03 0.03 0.02 0.01 0.01 0.01 0.00 0.00 0.00 0.00 0.00 0.00 0.00 0.00 0.00 0.00 0.00 0.00 0.00 0.00 0.00 0.00 0.00 0.00 0.00 0.00 0.00
0.02 0.01 0.01 0.01 0.01 0.01 0.01 0.01 0.01 0.01 0.01 0.01 0.02 0.04 0.03 0.01 0.01 0.00 0.00 0.00 0.00 0.00 0.00 0.00 0.00 0.00 0.00 0.00 0.00 0.00 0.00 0.00 0.00 0.00 0.00 0.00 0.00 0.00 0.00 0.00 0.00 0.00 0.00
0.03 0.03 0.02 0.02 0.02 0.02 0.02 0.02 0.01 0.01 0.01 0.01 0.01 0.01 0.00 0.00 0.00 0.00 0.00 0.00 0.00 0.00 0.00 0.00 0.00 0.00 0.00 0.00 0.00 0.00 0.00 0.00 0.00 0.00 0.00 0.00 0.00 0.00 0.00 0.00 0.00 0.00 0.00
0.03 0.03 0.03 0.02 0.02 0.02 0.02 0.01 0.01 0.00 0.00 0.00 0.00 0.00 0.00 0.00 0.00 0.00 0.00 0.00 0.00 0.00 0.00 0.00 0.00 0.00 0.00 0.00 0.00 0.00 0.00 0.00 0.00 0.00 0.00 0.00 0.00 0.00 0.00 0.00 0.00 0.00 0.00
0.04 0.03 0.03 0.03 0.02 0.01 0.01 0.00 0.00 0.00 0.00 0.00 0.00 0.00 0.00 0.00 0.00 0.00 0.00 0.00 0.00 0.00 0.00 0.00 0.00 0.00 0.00 0.00 0.00 0.00 0.00 0.00 0.00 0.00 0.00 0.00 0.00 0.00 0.00 0.00 0.00 0.00 0.00
0.03 0.03 0.02 0.02 0.01 0.00 0.00 0.00 0.00 0.00 0.00 0.00 0.00 0.00 0.00 0.00 0.00 0.00 0.00 0.00 0.00 0.00 0.00 0.00 0.00 0.00 0.00 0.00 0.00 0.00 0.00 0.00 0.00 0.00 0.00 0.00 0.00 0.00 0.00 0.00 0.00 0.00 0.00
0.01 0.01 0.00 0.00 0.00 0.00 0.00 0.00 0.00 0.00 0.00 0.00 0.00 0.00 0.00 0.00 0.00 0.00 0.00 0.00 0.00 0.00 0.00 0.00 0.00 0.00 0.00 0.00 0.00 0.00 0.00 0.00 0.00 0.00 0.00 0.00 0.00 0.00 0.00 0.00 0.00 0.00 0.00
0.00 0.00 0.00 0.00 0.00 0.00 0.00 0.00 0.00 0.00 0.00 0.00 0.00 0.00 0.00 0.00 0.00 0.00 0.00 0.00 0.00 0.00 0.00 0.00 0.00 0.00 0.00 0.00 0.00 0.00 0.00 0.00 0.00 0.00 0.00 0.00 0.00 0.00 0.00 0.00 0.00 0.00 0.00